Wind_Speed
53 53 53 53 54 54 54 55 58 60 60 59 60 60 61 61 62 63 62 60 60 61 60 58 58 61 64 68 72 74 74 74 77 78 79 80 82 83 83 84 84 84 84 86 87 87 88 91 93 92 90 88 87 85 83 82 81 80 79 79 79 78 78 77 75 75 78 80 80 79 79 79 79 78 73 68 64 64 63 61 60 58 57 53 48
58 57 57 57 58 58 59 59 60 62 63 63 62 63 64 65 66 66 66 65 65 66 67 67 68 69 71 74 78 80 80 79 80 80 82 84 86 87 88 89 90 91 93 95 94 93 95 96 97 95 93 90 88 86 86 85 84 83 82 82 81 81 80 79 78 77 78 82 83 81 80 81 81 81 79 75 69 66 66 65 64 62 61 59 54
63 63 63 63 62 62 63 63 64 65 66 67 67 67 68 68 69 71 71 70 70 70 71 72 73 75 77 78 82 85 87 87 86 86 87 90 91 93 94 95 97 98 100 101 100 99 100 100 99 97 94 92 90 89 89 88 87 85 84 83 83 82 82 81 80 79 80 82 85 84 82 82 82 82 81 80 76 71 68 68 67 66 64 63 60
68 69 69 69 68 68 68 68 69 69 70 71 72 72 72 72 73 73 75 75 74 75 76 77 78 79 80 82 85 88 90 91 91 91 92 94 95 97 98 100 101 102 103 103 102 101 101 100 99 98 96 95 94 93 92 91 89 88 87 86 85 85 84 83 82 82 82 83 85 87 85 83 82 82 81 80 79 76 72 70 70 69 67 66 65
73 73 74 74 74 74 74 73 74 74 75 76 76 76 76 77 77 77 77 78 78 79 79 80 81 82 83 85 88 90 92 93 94 95 96 97 99 101 102 102 102 103 104 104 103 102 101 101 101 101 100 99 98 97 96 94 93 91 90 89 89 88 87 86 85 84 84 84 85 86 87 85 82 81 80 79 79 79 76 72 71 71 70 68 68
77 78 78 78 79 79 79 79 79 79 80 81 81 81 81 81 81 82 82 82 82 83 83 84 84 85 85 87 90 92 94 96 98 99 99 100 102 103 103 103 103 104 105 106 106 104 104 104 105 105 105 104 103 102 100 98 97 95 94 93 92 90 89 87 85 84 83 83 82 84 85 84 81 79 79 77 77 78 77 75 73 73 72 70 69
80 80 80 81 82 82 83 84 84 84 85 85 86 87 86 86 86 86 87 87 88 88 89 89 89 89 89 90 92 94 95 98 100 101 102 103 105 106 106 106 106 107 108 109 109 108 108 109 109 110 110 110 109 108 105 103 101 99 97 95 93 91 88 85 83 81 80 79 78 79 81 82 79 76 77 76 74 74 76 76 75 74 74 72 71
82 82 83 83 84 84 85 86 87 88 89 90 91 91 92 92 92 92 92 92 93 94 94 95 95 95 95 95 96 97 98 100 101 103 105 106 107 107 108 108 109 110 111 112 112 112 112 112 112 112 113 113 113 111 110 108 105 101 98 95 92 88 85 82 80 77 76 74 74 75 77 79 78 74 74 74 73 72 74 76 77 76 76 75 73
86 87 87 87 88 88 89 90 91 92 92 93 94 95 96 96 96 97 97 97 97 98 98 99 99 100 100 101 101 102 102 103 104 106 108 109 109 109 109 110 111 112 113 113 114 114 115 114 113 113 114 114 114 113 112 110 107 103 99 95 91 87 83 80 78 75 73 71 71 72 74 76 76 74 71 72 72 72 74 77 79 79 77 77 75
90 91 91 92 92 93 94 94 95 95 96 97 97 98 99 99 100 100 100 100 101 101 101 102 102 103 103 104 105 105 106 106 107 110 112 112 112 111 111 112 113 114 115 115 114 115 116 116 115 115 114 114 113 113 111 110 107 103 99 95 90 86 82 79 76 74 72 70 69 69 71 72 74 74 70 70 72 73 74 78 80 80 78 78 78
94 95 95 96 97 97 98 98 99 100 100 101 101 102 102 103 103 104 104 104 104 105 105 106 106 106 107 107 107 108 109 109 110 112 114 115 115 114 114 114 115 115 116 116 116 116 116 116 116 116 115 114 113 112 110 108 105 101 97 93 89 85 81 78 76 73 71 69 68 68 69 70 72 74 72 70 71 73 74 76 78 79 79 79 80
98 99 100 100 101 102 102 103 103 104 104 105 105 106 107 108 108 108 108 108 108 108 108 109 110 110 111 111 111 111 112 113 114 115 116 117 117 117 117 117 118 118 118 118 118 118 117 116 116 116 115 114 112 111 108 105 101 98 94 90 87 84 81 78 76 73 70 68 67 67 68 69 70 73 73 71 70 72 73 74 75 78 79 79 80
102 103 104 105 106 106 107 108 108 109 109 110 111 111 112 113 113 113 113 113 114 114 114 114 114 114 115 115 115 115 116 116 117 118 119 120 120 120 120 120 120 120 120 120 119 119 118 117 115 114 112 111 109 107 104 101 98 95 91 88 85 83 81 79 76 73 71 68 67 67 67 67 69 71 73 71 69 70 72 73 74 76 78 79 79
106 107 108 109 111 112 112 113 114 115 115 116 116 117 117 118 118 119 119 119 119 119 119 119 119 119 119 119 119 119 119 119 120 120 121 122 122 122 122 121 121 121 120 119 119 118 117 115 113 111 109 107 105 103 100 97 94 91 88 86 84 82 80 78 75 73 71 69 68 66 65 66 67 69 72 71 68 69 71 73 74 74 76 78 79
112 113 114 115 116 117 118 119 120 121 121 121 122 122 122 122 123 123 123 123 123 123 123 122 122 122 122 121 121 121 120 120 121 121 122 123 123 123 122 121 120 119 118 117 116 115 114 112 109 107 105 102 100 98 95 92 89 87 85 83 81 79 76 75 73 72 70 69 68 67 65 64 65 67 70 71 69 68 71 72 72 71 73 76 78
117 118 119 120 121 121 122 123 124 124 123 123 123 123 123 123 123 123 123 123 123 123 123 123 123 123 122 122 121 120 120 119 120 120 120 121 121 121 120 118 116 114 113 112 111 110 109 108 106 103 101 99 97 94 92 89 86 84 82 81 78 76 74 73 72 71 70 69 69 67 65 63 63 65 68 70 69 68 70 70 69 68 70 74 76
122 123 123 123 123 122 123 123 122 121 120 120 119 119 119 119 119 119 119 119 119 119 120 120 120 120 120 120 119 119 118 118 117 117 117 117 117 116 114 112 110 109 108 107 107 106 105 104 103 101 99 97 96 93 91 88 86 83 81 79 77 75 73 73 73 72 70 70 69 67 64 62 63 65 68 69 69 68 67 67 67 67 68 72 75
125 123 122 120 119 119 118 118 116 115 115 114 114 113 114 114 115 115 115 115 115 115 116 116 116 116 116 116 115 115 114 114 113 112 112 112 112 111 108 106 105 104 103 103 103 102 101 100 99 98 96 95 93 92 90 88 85 83 80 78 76 75 74 74 74 72 71 70 68 66 65 63 64 66 67 67 67 65 63 63 65 66 66 69 74
119 117 115 113 112 112 112 111 111 110 109 109 109 109 110 110 111 111 111 111 111 111 111 111 110 110 110 110 109 109 108 108 108 107 107 107 107 106 104 101 100 99 99 99 98 98 96 96 95 93 92 91 90 89 87 84 82 81 79 77 75 75 75 75 75 73 72 70 68 66 65 64 63 64 65 66 65 63 62 62 64 65 65 68 73
112 110 109 107 107 106 106 106 105 105 105 105 105 106 106 106 106 106 106 105 105 105 104 104 104 104 104 103 103 103 103 102 103 103 102 101 101 100 98 96 95 94 94 93 92 92 91 90 90 89 88 87 86 85 83 81 79 79 78 75 74 74 75 75 74 73 72 69 67 65 63 62 61 62 65 67 65 63 62 62 63 64 64 68 72
106 105 104 104 103 103 103 103 102 102 103 103 103 103 103 103 102 101 100 99 99 98 98 98 97 97 97 97 96 96 96 96 96 96 96 95 95 94 92 91 90 89 88 87 87 86 86 86 86 86 84 83 81 80 79 79 78 77 76 74 73 73 75 74 73 72 71 68 65 62 60 60 60 62 65 67 65 63 62 61 62 63 64 67 72
102 102 102 102 102 102 102 102 101 101 101 101 101 100 100 99 97 96 95 94 93 92 92 91 90 90 89 89 89 89 89 90 90 90 90 90 90 89 88 86 86 85 84 83 83 83 82 82 82 82 81 79 77 76 76 77 76 75 74 73 72 72 73 73 71 70 68 65 63 59 57 58 59 62 65 65 64 63 62 61 61 62 64 67 72
102 102 102 101 100 100 100 99 99 98 97 97 96 95 94 93 92 91 90 89 88 87 87 86 85 84 84 84 83 84 84 85 85 85 86 86 86 85 84 83 83 82 81 80 80 80 79 77 77 76 76 75 74 73 73 74 74 73 72 72 71 71 70 70 68 67 65 62 59 57 55 56 58 62 64 63 63 62 62 61 60 61 64 67 71
100 100 99 98 97 97 96 96 95 94 93 92 91 90 90 89 88 87 86 86 85 83 83 82 81 81 80 80 80 80 81 81 81 81 81 81 81 81 81 80 80 79 78 77 77 76 75 73 71 71 71 71 70 70 70 71 71 71 70 69 68 66 66 65 63 62 61 59 56 55 55 57 59 61 62 62 62 62 61 59 58 60 63 66 70
98 96 95 95 94 93 93 92 92 91 90 88 88 87 86 85 84 84 83 82 81 80 79 79 78 77 77 76 77 77 77 76 76 76 76 76 76 75 75 75 75 75 74 73 72 72 70 69 67 67 67 67 67 67 68 68 68 67 66 65 63 61 60 60 59 58 57 56 55 55 56 58 60 60 61 60 60 60 59 57 56 58 62 66 70
94 93 92 91 91 90 90 89 88 87 85 84 83 82 81 80 80 79 77 76 75 74 74 74 73 72 71 71 71 71 71 71 70 69 69 69 70 70 70 70 70 69 69 68 67 66 65 64 64 64 64 64 64 64 64 64 64 63 62 60 59 57 56 56 55 55 54 54 54 54 55 57 59 59 58 58 57 57 57 56 55 57 61 66 71
91 91 89 88 87 86 85 83 82 81 79 78 77 76 75 74 73 72 71 69 68 68 68 67 66 65 65 65 65 65 65 65 64 64 64 64 64 64 64 64 64 63 63 62 61 60 60 60 60 61 61 61 60 60 60 60 60 59 58 57 56 54 54 53 53 53 52 53 53 54 55 58 58 58 57 56 55 54 54 54 54 56 60 65 69
88 86 85 83 81 80 78 77 75 74 73 72 71 70 69 68 66 64 63 62 62 62 61 60 60 59 59 59 59 60 60 60 60 60 60 60 59 59 59 58 58 57 56 56 55 55 56 58 58 58 58 57 57 57 56 57 57 56 55 54 53 52 51 51 51 51 51 52 53 54 56 57 57 56 56 54 53 53 53 53 54 55 59 63 67
82 81 79 77 75 73 71 70 69 68 67 66 65 63 62 61 59 57 57 56 56 56 56 55 54 54 54 54 55 55 56 56 55 55 55 55 54 54 54 53 52 52 52 51 51 52 54 54 54 54 53 53 53 53 54 53 53 53 52 52 52 51 50 50 50 50 51 52 53 54 55 56 55 55 54 53 52 53 53 53 54 56 58 62 66
76 75 73 70 68 66 64 64 63 62 61 59 58 56 55 55 53 52 52 52 51 51 51 50 50 50 50 50 50 51 51 50 50 50 49 49 49 49 49 49 48 48 47 47 48 49 50 50 49 50 50 50 50 51 52 51 50 51 51 51 51 51 50 50 50 51 52 52 52 54 55 55 55 55 54 52 52 53 54 54 55 56 58 61 66
69 67 65 63 61 60 59 58 57 55 54 53 52 51 50 50 49 48 47 46 46 45 45 45 45 45 45 45 45 45 45 44 44 43 43 44 44 44 44 44 43 43 42 43 44 45 45 46 46 46 47 47 48 50 50 49 49 50 51 51 51 51 51 51 52 52 52 52 53 54 55 55 55 55 53 51 51 53 54 54 55 56 58 61 66
62 60 58 56 55 54 53 52 50 49 48 47 47 46 45 44 43 42 41 40 40 39 39 38 38 39 39 39 38 37 36 37 37 37 37 38 38 38 38 38 38 38 38 39 41 42 42 42 44 44 44 46 47 49 49 49 50 50 51 51 52 52 52 52 53 53 52 52 53 54 55 55 54 54 52 50 50 51 53 53 54 55 58 62 66
55 54 53 51 50 49 48 46 45 45 43 42 42 40 39 38 37 35 34 34 33 33 32 32 32 32 33 32 31 30 29 29 30 31 32 32 33 33 33 33 33 34 35 36 37 39 40 41 42 44 44 45 47 48 48 49 49 50 50 51 52 52 52 52 52 52 52 53 54 55 55 55 55 54 52 50 50 51 52 52 53 55 59 63 67
50 49 48 47 45 44 43 41 40 39 38 37 36 35 33 32 31 30 29 28 28 28 27 27 27 27 26 26 25 25 25 25 25 26 28 29 29 30 30 31 31 31 32 34 36 38 40 41 42 44 44 45 45 46 47 48 49 49 50 51 52 52 52 51 51 50 51 53 54 55 55 56 55 54 53 51 50 51 52 52 53 56 59 63 68
46 45 43 42 41 39 38 37 35 34 33 32 31 29 28 27 26 26 25 24 24 23 23 23 22 22 21 21 21 21 21 22 23 24 25 26 28 29 29 30 30 30 31 33 35 38 40 40 41 42 42 42 43 44 46 47 48 49 50 52 53 54 54 53 52 51 51 52 54 55 56 56 56 56 55 52 51 51 53 53 55 57 61 65 69
42 40 39 37 36 35 34 33 32 31 30 28 26 25 24 23 22 22 21 21 20 20 19 19 18 18 18 18 18 18 19 20 22 23 24 25 27 29 30 30 31 31 32 33 35 37 38 39 39 40 39 40 41 43 44 46 47 49 50 52 53 55 55 55 55 54 53 53 54 55 57 57 57 57 56 54 52 52 54 56 57 59 62 66 71
38 36 35 34 33 32 30 29 28 27 26 24 22 21 20 19 18 18 18 17 17 17 16 16 16 16 16 16 17 17 18 19 20 22 23 25 26 28 30 31 32 33 34 35 36 37 37 38 39 40 40 41 42 43 44 45 46 47 48 50 51 53 55 56 56 56 56 56 56 56 57 58 59 58 57 56 54 54 56 58 59 61 64 68 73
34 32 31 30 29 28 27 26 25 24 22 20 18 17 17 16 15 15 15 15 15 14 14 14 14 15 15 16 16 17 18 18 20 21 23 24 26 27 28 30 31 33 35 36 36 36 37 38 38 39 40 41 42 43 44 45 46 46 46 47 48 50 52 53 55 56 58 59 59 59 59 60 60 59 59 58 56 56 58 60 62 63 66 70 74
31 30 28 27 26 25 24 23 22 21 18 17 16 15 15 15 14 14 14 14 13 13 13 13 14 15 15 15 16 16 17 18 20 21 23 24 25 26 27 29 30 32 33 34 33 33 34 36 37 38 38 39 40 42 43 44 44 45 45 46 47 48 50 51 52 53 56 59 61 60 59 60 60 60 60 60 58 57 59 62 64 65 68 71 75
28 27 25 24 23 22 21 20 19 18 16 15 14 14 14 14 13 13 13 13 12 12 12 13 13 14 15 16 16 17 17 19 20 22 23 24 25 25 26 27 29 31 31 31 30 30 31 33 35 36 36 36 37 39 40 41 41 42 42 43 45 47 48 49 49 50 53 56 59 58 57 58 58 58 59 60 59 58 61 64 66 68 70 74 78
25 23 22 21 21 20 19 18 17 16 15 14 14 14 14 13 12 12 12 12 12 12 12 12 12 13 15 16 17 19 20 21 22 24 25 26 26 27 27 28 29 29 28 28 28 29 30 31 32 33 33 33 33 35 36 37 37 38 40 42 44 44 45 46 46 47 49 52 54 54 54 54 54 54 56 59 60 59 62 66 68 70 73 77 80
22 21 20 19 19 18 17 16 16 16 15 14 13 13 13 13 12 12 12 12 12 11 11 11 12 13 15 17 18 20 21 23 24 25 26 26 27 27 28 29 29 28 26 25 27 30 30 30 29 29 29 30 30 31 32 33 34 35 38 40 41 41 42 42 43 44 46 49 50 50 49 50 50 50 54 58 59 59 62 66 70 72 75 79 82
19 18 18 17 16 16 16 16 16 16 15 14 13 13 12 12 12 12 12 12 11 11 11 11 12 13 15 17 19 21 22 24 25 27 27 27 27 28 29 30 30 28 26 24 26 28 29 28 27 27 27 27 27 28 29 30 31 32 34 36 37 38 39 40 41 42 43 45 47 47 45 45 46 48 52 56 57 59 62 67 71 74 77 81 84
17 16 16 15 15 15 16 16 16 15 15 13 12 12 12 12 12 12 11 11 11 11 11 11 12 13 14 16 19 21 22 24 27 29 29 29 29 30 31 32 32 30 29 27 27 27 27 27 26 25 25 25 25 24 25 26 27 29 30 32 33 35 36 37 39 40 41 42 44 43 42 42 43 46 50 54 56 58 62 67 72 75 79 82 86
15 15 14 14 15 15 16 16 16 15 14 13 12 12 12 12 11 11 11 11 11 11 12 12 12 13 14 16 19 20 22 25 28 30 31 31 31 32 32 33 33 33 33 32 30 28 27 27 26 25 24 23 22 22 22 23 25 26 27 28 30 31 32 34 36 38 39 40 41 41 41 41 42 45 50 54 56 59 63 68 73 77 80 84 87
15 14 14 14 15 15 15 15 15 15 14 13 12 11 11 11 11 11 11 11 11 12 13 13 13 12 14 16 18 20 23 26 28 30 31 31 32 32 33 33 33 34 34 34 32 29 27 26 24 23 22 20 19 19 20 21 22 24 25 25 26 27 28 31 35 37 38 39 40 40 40 42 44 47 50 53 56 60 65 69 74 78 82 85 89
15 14 14 14 15 15 15 15 15 15 14 13 13 12 12 12 12 12 12 12 12 13 14 14 13 13 13 14 17 20 23 26 28 29 30 30 31 31 33 33 34 35 35 34 32 29 27 24 22 21 20 19 17 17 18 19 20 22 23 23 23 24 26 29 33 35 37 38 39 40 41 43 47 49 50 52 56 61 65 70 75 79 82 86 91
14 14 14 15 15 15 15 16 15 15 15 14 14 13 13 12 13 13 13 13 13 14 15 15 14 14 13 13 15 19 23 25 26 28 28 28 29 29 31 33 34 35 35 34 31 28 26 22 20 18 18 18 16 15 15 16 17 18 20 21 21 23 25 27 30 33 35 37 39 41 44 47 50 51 50 52 57 62 66 70 75 79 82 87 91
15 15 15 15 15 15 15 16 16 16 16 15 15 14 14 14 14 14 14 14 14 15 16 16 16 15 14 13 14 18 22 24 25 26 27 28 28 29 30 31 32 33 33 32 29 27 24 21 19 18 17 17 15 13 12 13 14 15 17 18 19 21 23 25 28 31 33 36 40 43 47 49 50 50 50 54 59 63 66 70 75 78 82 87 92
15 15 15 15 15 15 16 16 16 17 17 16 16 16 15 15 15 16 16 16 15 15 16 16 16 16 16 15 15 17 21 23 25 26 27 27 28 28 29 30 31 31 30 29 26 24 22 20 18 17 16 15 13 11 10 10 11 12 14 16 17 19 22 25 27 30 33 36 40 43 46 48 49 50 52 56 60 63 67 71 75 78 82 87 92
15 14 14 15 15 16 17 17 18 18 18 18 18 17 17 16 17 17 18 17 16 16 16 16 17 17 17 17 16 17 20 23 24 25 26 27 27 27 29 30 31 30 28 26 23 21 20 18 17 16 14 12 11 9 7 7 8 10 12 14 16 19 22 25 28 30 33 36 39 42 44 46 48 49 52 57 61 64 68 72 75 78 82 87 92
Wind_Direction
280 279 277 275 274 271 268 267 266 267 267 268 268 268 268 267 267 267 266 265 265 264 263 261 259 258 257 258 261 265 267 268 269 270 270 270 270 271 272 272 271 271 273 274 276 277 279 281 283 283 284 285 285 285 285 284 284 283 283 282 282 281 280 279 277 277 278 277 274 272 270 269 268 267 264 259 254 250 247 244 242 241 240 240 238
281 280 278 277 276 275 274 273 272 272 271 271 271 271 271 271 271 270 268 266 266 266 265 264 263 262 261 261 262 265 266 267 268 269 270 270 271 273 274 274 273 274 275 276 277 278 280 282 282 283 284 284 284 284 283 283 282 282 282 281 280 280 279 278 277 277 277 278 276 273 270 268 267 266 265 262 258 253 249 246 243 241 240 239 238
283 282 281 280 278 277 276 275 275 274 274 274 274 273 272 272 272 272 272 271 269 269 268 266 265 264 264 263 263 264 266 268 268 268 268 269 271 272 274 275 275 275 276 277 278 279 281 281 282 283 283 283 283 282 282 282 282 282 282 282 282 281 280 280 279 279 278 278 278 276 272 268 266 264 263 262 260 256 251 248 245 243 241 239 239
284 284 283 283 282 281 280 279 278 277 277 276 276 275 275 274 273 273 273 273 272 271 271 269 268 267 266 266 266 266 268 269 270 270 269 270 271 272 273 274 275 276 277 278 279 280 281 281 282 283 283 283 283 283 282 283 283 284 284 284 284 283 282 282 281 280 279 278 278 278 274 271 267 264 262 261 260 257 253 250 247 245 242 240 239
284 284 284 283 283 283 282 281 281 280 279 279 278 278 278 277 277 276 275 275 274 273 273 272 272 271 270 270 270 270 271 272 273 272 272 273 274 274 275 276 277 278 279 280 281 281 282 283 283 284 284 284 284 284 284 285 285 286 286 285 285 284 284 283 282 281 279 277 277 277 275 272 269 266 263 259 258 256 254 251 248 246 244 240 238
283 282 282 282 282 282 282 282 281 281 280 280 280 279 279 279 279 278 278 277 277 276 275 274 274 273 273 273 273 273 274 275 275 275 276 277 277 278 278 279 280 281 281 282 283 283 284 285 285 285 285 285 285 286 286 286 287 287 286 286 285 285 283 282 281 279 278 276 275 275 275 272 269 267 264 260 256 254 253 250 247 246 244 242 238
280 280 280 280 280 280 281 281 281 281 281 280 280 280 280 280 279 279 279 278 278 278 277 277 276 275 274 274 274 274 275 276 277 278 278 279 280 280 281 282 282 282 283 283 284 285 285 285 286 286 287 287 287 287 287 288 287 287 287 286 285 284 283 281 279 278 276 274 273 272 273 271 269 266 264 260 256 252 251 248 245 243 242 241 238
279 279 279 278 278 278 278 278 278 279 279 279 279 279 279 279 279 279 278 278 278 278 278 278 278 277 277 276 276 276 276 277 277 278 278 279 279 280 281 281 282 282 283 283 284 284 285 285 285 286 286 287 287 287 288 288 288 287 287 286 285 284 283 281 280 278 275 273 271 270 270 270 268 265 262 260 256 251 248 245 242 240 239 239 238
280 280 280 280 279 279 278 278 278 278 278 278 278 278 278 278 278 278 277 277 277 277 277 277 277 277 277 277 277 277 277 277 278 278 278 278 278 278 279 279 280 280 281 282 282 283 283 283 284 284 284 285 286 286 287 288 288 288 288 288 287 285 284 282 280 277 275 272 270 268 267 267 267 264 261 258 255 250 245 243 241 238 237 237 237
281 281 281 281 281 280 280 280 279 279 279 278 278 278 278 278 278 278 278 277 277 277 277 277 276 276 276 276 276 277 277 277 277 277 278 278 278 278 279 279 279 280 280 281 281 282 282 283 283 283 283 284 285 286 286 287 288 288 288 287 286 285 283 281 279 276 274 271 268 266 265 265 265 263 259 256 254 250 245 243 242 239 237 235 235
282 282 282 281 281 281 281 280 280 280 280 280 280 280 280 279 279 279 279 278 278 278 278 278 277 277 277 277 277 277 277 277 278 278 278 279 279 279 280 280 280 280 280 281 281 281 281 282 282 283 283 284 285 285 285 286 286 286 286 285 285 283 282 280 278 275 273 271 268 265 263 262 262 262 259 254 251 249 246 244 242 240 237 234 233
283 283 282 282 282 282 282 282 282 282 282 282 282 282 281 281 281 280 280 280 280 279 279 279 279 279 279 278 278 278 278 279 279 279 279 280 280 280 280 280 280 280 280 280 280 280 280 281 281 282 282 283 283 284 284 284 284 284 284 283 283 282 280 279 277 275 272 270 267 264 261 260 260 260 258 255 251 248 246 243 241 240 237 234 232
283 283 283 284 284 284 284 284 284 284 284 283 283 283 282 282 282 282 282 281 281 281 280 280 280 279 279 279 279 279 279 279 279 279 279 280 280 280 280 280 280 280 280 280 280 280 280 280 280 281 281 282 282 282 282 283 282 282 282 282 281 280 278 277 276 274 271 268 265 262 259 258 257 257 257 255 250 247 246 243 240 239 237 234 230
284 284 284 285 285 285 285 285 284 284 284 284 283 283 283 282 282 282 281 281 281 281 280 280 279 279 279 279 279 279 279 279 279 279 279 279 279 278 278 278 278 279 279 279 279 279 279 279 280 280 280 280 280 281 281 281 280 280 279 278 278 277 276 275 274 272 270 267 264 261 258 256 255 255 255 254 250 246 244 243 241 238 237 234 230
285 285 285 285 285 284 284 284 283 283 283 283 282 282 281 281 280 280 280 280 280 279 279 279 278 278 278 277 277 277 277 277 277 277 277 277 277 277 277 277 277 278 278 278 278 279 279 279 279 279 279 279 279 279 279 279 278 278 277 276 275 274 273 272 271 269 268 266 264 261 259 256 254 254 254 253 250 246 244 243 242 239 236 234 230
285 285 285 284 284 284 283 283 282 282 281 281 280 280 280 279 279 278 278 278 278 277 277 277 277 277 276 276 276 275 275 275 275 275 275 275 275 276 276 276 276 277 277 278 278 278 279 279 280 280 280 280 279 279 279 278 278 277 276 275 274 273 272 271 270 268 266 265 264 262 259 256 255 254 253 252 250 247 244 243 242 239 236 234 231
286 286 285 285 284 284 283 282 282 281 281 280 280 279 279 278 278 277 277 277 277 276 276 276 276 276 276 276 276 276 275 275 275 275 275 275 275 275 275 276 276 276 277 277 277 278 278 278 279 279 279 279 279 279 279 279 278 277 276 275 274 273 271 270 268 267 265 264 263 262 259 257 255 253 252 251 250 247 245 243 241 238 235 233 230
287 286 286 285 284 283 282 282 281 281 280 280 279 279 278 278 277 276 276 276 276 275 275 275 276 276 276 276 276 276 276 276 276 275 275 275 275 275 275 275 276 276 276 276 276 276 276 276 276 277 277 277 277 277 277 277 276 276 275 273 272 271 270 268 267 265 264 263 262 261 259 256 255 254 253 252 250 248 245 242 239 237 233 231 229
287 286 285 284 284 283 282 281 281 280 280 279 278 278 277 276 276 276 275 275 275 275 275 276 276 276 276 276 276 276 276 275 275 275 275 275 275 275 275 275 275 275 274 274 274 274 274 274 274 274 274 274 274 274 274 274 273 273 272 271 270 269 268 267 265 264 263 262 261 260 258 256 254 254 254 253 251 248 243 239 236 234 230 228 227
287 287 286 285 284 283 282 281 281 280 280 279 278 277 277 276 276 276 276 276 276 276 276 276 276 275 275 275 275 275 275 275 275 275 275 275 275 275 275 275 274 273 273 272 272 273 273 273 273 272 272 272 272 272 272 272 271 270 269 268 267 267 266 265 264 263 263 262 261 259 258 256 255 253 253 251 249 246 241 237 234 231 228 226 225
288 287 287 286 285 284 283 283 282 281 281 280 279 279 279 278 278 278 278 278 277 277 277 276 276 275 275 275 274 275 274 274 274 274 274 274 274 274 274 274 273 272 272 272 272 271 271 271 271 271 271 271 271 271 271 270 269 268 267 266 265 265 264 264 263 263 263 262 261 260 258 257 255 253 251 249 247 244 240 235 232 229 226 224 224
288 287 286 285 285 284 283 283 283 282 282 281 281 281 281 281 281 280 280 279 279 278 278 277 276 276 275 275 275 275 274 274 274 274 274 274 274 274 274 274 273 273 272 272 272 271 270 270 270 271 271 271 270 270 269 268 267 266 265 265 264 263 262 262 262 262 262 262 261 260 259 257 255 253 250 247 245 242 239 234 230 226 223 222 222
287 286 285 285 284 284 283 283 283 282 282 282 282 282 282 282 281 281 281 280 279 279 278 278 277 277 276 276 275 274 274 273 273 273 273 273 274 274 274 274 274 274 273 273 272 271 271 271 270 270 270 270 269 267 266 266 265 264 263 263 262 261 261 261 261 261 262 262 261 260 258 256 253 250 248 245 242 240 237 233 229 225 222 221 221
286 286 285 285 285 284 284 284 284 283 283 283 283 282 282 282 281 281 280 280 279 279 279 278 277 277 276 275 275 274 273 273 273 273 273 273 273 274 274 274 274 273 273 273 272 272 272 272 271 270 269 268 267 266 265 264 264 263 263 263 262 262 261 261 261 260 260 260 259 257 254 252 249 246 244 242 239 238 236 233 228 224 221 219 219
286 286 286 286 285 285 285 285 284 284 284 284 284 283 282 282 281 281 280 280 280 279 279 278 277 277 276 275 275 274 274 273 273 273 273 273 273 273 273 272 272 272 272 272 272 272 272 272 271 270 269 267 266 265 265 264 264 264 264 264 263 262 261 260 259 258 257 256 255 252 249 247 245 243 241 240 238 236 235 232 227 223 220 218 218
287 286 286 286 286 286 285 285 285 285 285 284 284 283 282 282 281 280 280 280 280 279 279 278 277 277 276 275 275 275 274 273 273 273 273 272 272 272 271 271 271 272 272 272 272 273 273 273 272 270 269 267 266 266 265 265 264 264 263 263 262 260 259 258 256 255 253 252 250 248 246 244 243 241 240 238 236 235 233 230 226 221 218 216 216
287 287 287 286 286 286 286 286 285 285 285 284 283 282 282 281 281 281 281 281 280 279 278 277 277 276 276 275 275 274 274 273 273 272 272 271 271 271 271 271 271 272 272 273 273 273 272 271 269 268 267 266 265 265 264 264 264 263 262 261 260 258 257 255 254 253 251 249 247 245 243 241 240 239 238 236 234 232 230 228 224 220 217 215 214
288 288 287 287 287 286 286 286 285 285 284 283 282 282 281 281 281 282 282 281 279 278 277 277 277 276 276 275 274 274 273 273 273 272 271 271 271 271 271 271 271 271 271 270 270 269 268 267 267 266 266 266 266 265 264 264 263 263 262 261 259 257 255 253 252 250 248 247 245 243 242 241 240 239 237 235 233 231 229 226 223 219 215 214 212
288 287 287 287 287 287 286 285 285 283 283 282 282 283 283 282 282 282 280 279 278 278 278 277 277 276 275 274 274 273 273 272 272 272 272 272 272 271 271 270 269 269 269 268 267 266 266 266 267 267 267 267 266 265 263 263 262 262 261 260 258 256 254 252 250 247 246 244 244 243 243 242 241 239 237 235 232 231 229 225 222 218 214 212 211
287 287 287 287 287 286 285 284 283 283 283 283 284 283 283 282 282 281 280 280 279 279 278 278 277 276 275 274 273 273 273 273 273 273 272 272 271 270 269 269 268 268 268 267 267 266 266 266 266 266 266 265 264 263 262 261 260 259 258 257 256 254 252 250 248 246 245 243 242 242 242 241 240 239 236 233 230 228 226 224 220 216 212 210 209
287 287 287 287 286 285 284 283 284 284 284 284 283 283 282 282 282 282 281 281 280 279 278 277 276 275 275 274 274 274 274 273 272 271 270 270 269 269 269 269 268 268 267 267 266 266 266 266 265 264 264 263 263 262 261 259 257 256 254 253 252 250 248 246 244 243 242 241 240 239 239 239 238 237 234 230 226 225 223 221 218 214 210 208 207
287 287 286 285 285 284 284 285 285 284 284 283 283 283 283 283 283 282 281 280 280 279 278 277 276 276 275 274 274 274 274 274 274 272 271 270 269 269 268 268 269 268 267 267 267 266 265 265 264 263 262 261 261 260 260 258 257 255 253 251 249 247 245 243 241 240 239 237 236 236 236 236 235 234 232 227 223 221 220 218 215 211 207 205 205
286 286 285 285 285 285 285 285 285 284 284 284 284 283 284 284 283 283 282 281 280 279 278 277 276 276 276 276 276 275 274 274 273 273 273 272 271 271 271 270 270 270 269 268 268 267 266 264 263 262 261 260 260 260 260 259 258 257 256 254 252 249 246 243 240 238 235 234 234 233 233 233 233 233 231 225 221 218 217 214 212 209 206 203 203
285 285 285 285 285 285 285 285 285 285 285 284 284 285 285 285 284 284 283 282 281 280 279 278 278 277 277 278 278 278 276 276 275 275 276 277 277 277 277 275 274 274 273 272 270 269 268 266 265 264 263 262 262 261 259 258 257 256 255 254 254 253 250 247 244 239 235 233 232 231 231 231 231 231 230 225 219 216 214 212 209 207 204 202 201
286 286 286 286 285 285 285 285 285 285 284 284 285 286 286 285 285 284 283 281 280 279 278 277 277 276 276 276 277 278 279 279 279 279 279 281 282 282 281 280 278 277 275 275 274 272 271 270 269 268 266 265 263 261 259 257 255 253 251 250 251 251 251 249 247 243 239 235 232 231 231 231 230 230 229 226 220 215 211 210 207 205 203 200 199
286 286 286 286 285 285 285 285 284 284 284 284 285 285 284 283 282 281 280 279 277 276 275 274 274 275 275 276 278 279 281 283 285 286 288 288 289 289 289 288 287 285 282 280 278 277 277 277 276 275 272 269 266 262 260 257 255 252 250 249 248 248 249 248 247 245 243 239 235 232 231 231 231 230 228 226 221 215 210 208 206 204 202 199 198
286 286 286 285 284 284 284 283 283 282 282 283 283 281 279 278 277 276 276 275 275 275 276 277 277 278 278 278 278 279 282 285 289 292 293 292 292 293 293 293 292 290 287 284 282 282 281 281 279 278 275 272 269 266 263 261 258 255 253 250 248 247 246 246 245 244 243 241 239 235 233 232 232 231 229 226 222 216 210 207 204 203 202 199 196
285 285 284 283 282 282 281 280 279 280 280 280 277 274 272 270 269 268 268 268 269 271 273 274 273 273 274 276 278 282 285 288 289 290 291 291 291 290 290 290 288 287 285 283 283 283 282 280 278 276 274 271 268 266 264 262 260 258 256 253 250 248 245 244 242 240 239 239 239 237 234 232 232 231 229 226 222 216 211 206 203 202 201 198 196
283 282 281 281 280 278 277 276 276 277 276 273 269 266 264 262 260 260 260 262 264 265 267 269 271 273 275 278 282 285 288 290 291 291 290 290 290 290 289 289 287 285 284 284 284 284 283 281 279 277 274 271 268 266 263 261 259 258 256 253 251 249 246 243 240 237 236 236 237 236 234 232 231 229 227 225 222 217 211 206 202 200 199 197 195
281 280 279 277 275 273 273 273 273 272 269 265 260 258 257 257 257 258 259 261 262 265 268 272 276 280 284 288 290 293 295 296 298 299 299 298 298 296 294 293 290 289 288 289 290 289 287 286 283 280 276 272 269 266 264 262 260 258 255 252 249 247 245 243 240 237 234 234 235 235 234 232 230 227 225 223 221 216 211 206 201 199 197 195 194
278 276 274 272 271 270 270 270 268 265 261 256 252 252 253 255 257 259 260 261 264 267 271 275 280 287 292 297 301 305 308 308 308 308 308 308 307 305 302 298 295 293 295 297 298 296 292 289 287 283 279 275 271 267 264 261 259 256 254 252 250 248 246 243 239 236 234 232 233 233 232 230 228 224 221 220 218 214 210 205 201 198 196 194 193
273 271 269 267 267 267 266 264 262 259 256 252 249 249 252 255 258 260 262 265 268 271 273 278 284 291 297 302 308 311 313 313 313 312 312 312 312 311 308 304 300 300 301 303 304 302 299 295 292 288 284 279 274 270 266 262 258 254 251 250 249 247 245 242 238 234 231 230 230 230 228 226 223 219 216 216 215 212 208 204 200 197 195 193 192
267 265 263 263 262 261 259 258 257 255 253 251 250 250 253 257 260 263 266 269 271 273 276 280 286 291 297 303 308 311 313 315 316 316 316 317 317 316 313 309 307 307 308 309 310 308 305 302 299 294 289 283 277 271 267 263 259 254 250 248 245 243 241 239 236 232 228 225 225 225 223 220 217 213 211 212 211 208 205 202 199 196 194 192 191
260 258 257 256 254 253 252 253 253 253 253 253 254 256 259 261 264 267 269 273 275 279 282 284 285 288 294 301 306 309 314 319 322 321 321 322 322 321 319 316 315 316 317 317 317 316 312 308 304 299 294 287 281 274 268 264 260 255 249 245 241 239 236 233 232 229 225 221 221 220 216 213 210 207 206 208 207 204 202 200 198 196 194 192 190
252 250 250 249 249 249 251 252 253 255 257 259 262 264 266 268 269 270 272 276 280 282 284 284 285 289 295 302 308 313 319 324 326 325 325 325 325 324 322 320 320 322 323 323 322 321 318 313 308 303 297 290 284 277 270 263 258 253 248 243 239 235 231 227 226 225 221 218 217 214 211 208 205 202 203 204 203 200 199 198 197 195 193 191 190
246 245 245 246 247 249 251 253 256 259 262 265 267 268 269 271 273 274 276 280 282 282 284 285 288 293 299 306 313 318 323 326 327 326 327 327 327 325 323 322 322 324 325 324 323 323 320 315 309 305 299 292 286 278 270 262 255 250 247 243 238 232 226 221 220 220 218 215 213 210 207 203 200 200 201 201 199 197 196 196 195 194 193 191 189
243 242 243 244 246 248 252 255 258 261 264 266 268 268 269 272 274 276 278 281 281 282 284 286 290 294 300 308 316 320 323 325 327 327 328 328 327 325 323 323 324 326 326 325 324 324 321 316 312 307 302 296 289 279 268 259 252 247 244 240 234 227 221 217 216 216 214 212 209 205 202 198 198 199 200 198 196 195 195 195 194 194 192 190 188
244 244 244 245 246 249 253 255 258 261 264 266 268 268 269 270 272 272 274 276 277 278 281 285 288 292 298 307 315 318 321 323 326 327 327 327 327 326 324 324 326 327 327 325 324 324 322 319 316 312 307 302 293 281 267 255 247 242 238 234 228 221 215 213 212 211 209 207 202 199 196 195 196 198 197 194 194 194 194 193 193 193 192 190 188
242 243 245 246 249 252 256 259 262 265 267 269 270 271 271 272 272 271 270 270 271 273 277 281 285 290 296 304 312 317 321 324 328 330 330 330 330 328 326 326 328 329 328 326 325 325 326 325 324 320 314 307 299 286 269 253 242 235 230 225 220 214 210 207 205 204 203 200 197 195 193 193 194 194 193 192 193 193 192 192 192 192 191 190 188
241 244 248 253 256 260 264 267 270 271 273 273 274 274 274 274 273 272 270 269 268 269 272 276 280 287 294 301 310 320 325 329 331 333 333 334 333 330 329 329 331 332 330 327 327 328 330 330 328 324 317 311 304 292 271 250 235 226 221 216 212 208 204 200 197 196 196 195 194 193 192 191 191 190 190 190 191 191 191 191 191 191 190 189 188
243 248 253 258 263 267 270 272 274 276 277 278 279 279 278 277 275 273 272 271 268 266 267 270 276 284 292 299 311 323 329 330 332 335 336 335 335 334 332 332 334 334 333 331 331 333 334 334 332 329 323 317 309 295 271 243 223 213 208 204 202 200 197 193 190 190 190 190 190 190 190 189 187 186 188 190 191 190 189 189 190 189 189 189 188
Height
10698 10698 10697 10697 10696 10695 10695 10694 10691 10688 10687 10685 10684 10682 10682 10681 10681 10680 10681 10681 10680 10678 10677 10677 10677 10674 10671 10668 10664 10661 10658 10655 10654 10653 10652 10650 10649 10648 10647 10647 10646 10645 10644 10644 10644 10646 10646 10645 10644 10644 10645 10647 10646 10646 10645 10644 10645 10645 10645 10644 10643 10642 10641 10641 10641 10639 10630 10624 10626 10628 10628 10628 10630 10634 10641 10648 10652 10652 10653 10655 10657 10658 10659 10662 10667
10688 10688 10688 10688 10687 10685 10684 10684 10682 10680 10678 10678 10677 10676 10674 10673 10672 10670 10670 10671 10671 10669 10667 10667 10667 10665 10662 10659 10655 10650 10647 10646 10645 10645 10642 10640 10639 10638 10637 10636 10635 10634 10632 10631 10633 10635 10635 10633 10631 10631 10633 10635 10634 10633 10632 10631 10631 10632 10631 10631 10631 10630 10629 10628 10628 10628 10623 10614 10612 10615 10617 10617 10618 10620 10624 10631 10639 10643 10644 10646 10648 10649 10651 10654 10658
10678 10676 10676 10676 10676 10676 10675 10673 10672 10670 10669 10668 10667 10667 10666 10665 10664 10662 10660 10661 10661 10659 10657 10657 10657 10655 10653 10650 10646 10640 10637 10636 10636 10635 10632 10630 10629 10628 10626 10624 10623 10622 10619 10619 10620 10622 10621 10619 10618 10619 10619 10621 10620 10619 10618 10618 10618 10619 10619 10618 10617 10616 10615 10614 10614 10615 10613 10606 10599 10599 10602 10604 10605 10608 10610 10614 10623 10630 10634 10636 10638 10640 10643 10645 10649
10666 10665 10663 10663 10663 10663 10663 10662 10661 10659 10658 10657 10656 10655 10655 10655 10654 10653 10651 10650 10650 10648 10646 10644 10644 10643 10641 10639 10635 10631 10628 10626 10625 10623 10620 10619 10617 10615 10614 10612 10610 10609 10607 10607 10608 10608 10607 10606 10606 10605 10605 10606 10605 10604 10604 10605 10604 10604 10604 10603 10603 10602 10601 10600 10601 10600 10600 10596 10589 10583 10585 10590 10592 10594 10598 10601 10606 10614 10621 10625 10628 10630 10634 10637 10640
10655 10654 10652 10651 10649 10649 10650 10650 10649 10647 10645 10644 10643 10643 10642 10642 10641 10640 10640 10639 10637 10636 10634 10632 10631 10629 10628 10626 10622 10619 10617 10614 10612 10610 10608 10607 10604 10600 10600 10600 10599 10597 10594 10593 10593 10593 10593 10593 10591 10590 10589 10589 10589 10589 10589 10590 10590 10590 10589 10588 10588 10587 10587 10586 10586 10586 10585 10584 10579 10571 10569 10574 10578 10580 10584 10589 10592 10597 10606 10613 10617 10620 10624 10628 10631
10644 10643 10642 10640 10638 10637 10636 10636 10636 10635 10633 10631 10630 10630 10630 10629 10628 10627 10626 10625 10623 10622 10621 10620 10619 10617 10616 10614 10610 10607 10605 10601 10598 10596 10595 10593 10589 10586 10585 10585 10585 10583 10580 10577 10577 10579 10579 10577 10575 10573 10572 10572 10572 10572 10573 10574 10574 10574 10573 10573 10572 10572 10573 10572 10571 10571 10571 10570 10568 10561 10554 10557 10564 10566 10568 10574 10579 10583 10590 10599 10605 10608 10612 10618 10622
10636 10635 10633 10631 10629 10627 10625 10623 10622 10621 10620 10618 10616 10615 10615 10615 10614 10614 10613 10611 10609 10607 10605 10605 10604 10602 10603 10602 10598 10595 10593 10590 10587 10584 10581 10578 10575 10572 10570 10570 10569 10567 10565 10562 10562 10563 10563 10562 10559 10557 10555 10554 10554 10554 10555 10556 10557 10557 10557 10557 10556 10556 10557 10557 10556 10555 10555 10555 10554 10550 10543 10541 10548 10554 10553 10557 10566 10571 10575 10582 10590 10595 10600 10606 10611
10626 10625 10623 10622 10620 10618 10616 10613 10611 10610 10608 10606 10604 10602 10601 10600 10599 10599 10598 10597 10595 10592 10590 10589 10588 10586 10586 10586 10583 10582 10580 10578 10575 10571 10567 10564 10562 10560 10558 10557 10556 10553 10550 10549 10548 10547 10547 10546 10545 10542 10539 10537 10536 10536 10536 10537 10538 10539 10540 10539 10539 10540 10539 10539 10539 10539 10539 10540 10540 10539 10534 10529 10532 10540 10542 10542 10549 10557 10560 10565 10573 10580 10586 10592 10599
10612 10611 10610 10609 10608 10606 10605 10603 10601 10599 10597 10595 10593 10590 10589 10587 10585 10584 10583 10582 10581 10578 10576 10575 10573 10571 10570 10568 10567 10566 10565 10564 10561 10557 10552 10549 10548 10547 10545 10544 10542 10540 10537 10537 10535 10532 10531 10531 10530 10529 10526 10524 10522 10521 10520 10519 10519 10520 10521 10521 10522 10522 10523 10523 10523 10523 10523 10525 10526 10526 10524 10519 10518 10524 10530 10530 10532 10540 10545 10548 10554 10564 10573 10579 10586
10599 10597 10596 10595 10593 10592 10590 10588 10586 10585 10583 10581 10579 10577 10575 10573 10571 10569 10568 10566 10565 10563 10561 10559 10558 10556 10555 10553 10551 10550 10549 10548 10546 10540 10535 10533 10531 10530 10530 10529 10527 10524 10522 10522 10522 10518 10515 10513 10513 10513 10511 10510 10509 10507 10505 10504 10503 10504 10504 10505 10505 10506 10507 10508 10508 10508 10509 10510 10512 10514 10513 10510 10506 10508 10516 10519 10518 10523 10531 10535 10540 10549 10559 10567 10573
10586 10584 10581 10580 10578 10577 10575 10573 10571 10570 10568 10566 10564 10561 10559 10557 10555 10553 10551 10550 10548 10546 10544 10542 10540 10538 10537 10536 10534 10533 10531 10529 10527 10523 10519 10516 10514 10513 10512 10511 10510 10508 10505 10505 10505 10504 10501 10499 10497 10496 10495 10494 10493 10492 10490 10490 10489 10490 10490 10490 10490 10491 10492 10493 10493 10493 10495 10497 10499 10501 10502 10501 10496 10493 10499 10505 10506 10508 10516 10523 10529 10536 10545 10554 10560
10571 10568 10565 10563 10562 10560 10558 10557 10555 10553 10552 10550 10547 10544 10541 10539 10537 10535 10533 10531 10529 10528 10526 10524 10522 10520 10518 10516 10516 10515 10513 10510 10507 10504 10501 10499 10496 10495 10494 10493 10491 10490 10489 10488 10486 10486 10485 10484 10483 10482 10480 10479 10477 10476 10476 10476 10475 10475 10475 10476 10476 10476 10476 10478 10479 10479 10481 10484 10486 10488 10489 10489 10486 10482 10483 10491 10495 10497 10503 10511 10518 10524 10531 10540 10548
10556 10553 10550 10548 10545 10543 10541 10539 10537 10535 10533 10531 10528 10525 10523 10520 10518 10516 10514 10512 10510 10508 10506 10505 10503 10501 10499 10497 10496 10495 10494 10492 10489 10486 10483 10480 10478 10477 10476 10475 10473 10472 10472 10471 10469 10468 10468 10468 10468 10467 10466 10464 10462 10461 10462 10462 10460 10460 10462 10461 10461 10462 10462 10463 10465 10466 10468 10470 10472 10474 10475 10475 10474 10471 10470 10476 10484 10487 10491 10498 10506 10512 10518 10527 10535
10542 10539 10536 10534 10530 10528 10525 10522 10519 10517 10514 10512 10510 10507 10505 10502 10499 10496 10494 10492 10490 10488 10486 10484 10483 10482 10480 10478 10477 10476 10475 10473 10471 10468 10465 10461 10458 10458 10458 10457 10456 10455 10454 10454 10453 10451 10450 10450 10451 10452 10450 10449 10448 10447 10447 10447 10446 10446 10448 10448 10447 10447 10448 10450 10451 10452 10453 10456 10458 10460 10460 10461 10462 10461 10459 10463 10472 10476 10479 10485 10493 10500 10506 10513 10522
10527 10524 10522 10519 10515 10513 10510 10505 10502 10499 10496 10494 10492 10488 10486 10484 10480 10478 10476 10473 10471 10468 10466 10464 10462 10461 10460 10459 10458 10457 10456 10455 10452 10449 10446 10442 10439 10438 10438 10439 10439 10439 10438 10437 10436 10435 10433 10433 10434 10434 10433 10433 10433 10431 10431 10432 10432 10432 10432 10433 10433 10434 10435 10436 10437 10438 10440 10442 10444 10445 10447 10448 10450 10451 10449 10452 10459 10464 10467 10473 10481 10489 10495 10501 10509
10510 10508 10505 10501 10497 10495 10491 10485 10482 10480 10477 10475 10472 10468 10466 10464 10461 10458 10456 10454 10451 10449 10447 10444 10442 10440 10439 10438 10437 10437 10436 10435 10433 10431 10428 10424 10420 10418 10420 10422 10422 10423 10423 10421 10419 10418 10417 10416 10416 10416 10415 10415 10415 10414 10414 10415 10416 10416 10416 10416 10418 10420 10422 10423 10423 10424 10426 10428 10429 10431 10434 10436 10438 10439 10438 10439 10446 10451 10456 10462 10469 10476 10483 10488 10496
10489 10487 10484 10480 10477 10474 10468 10461 10460 10458 10455 10453 10451 10448 10445 10442 10439 10437 10435 10432 10431 10429 10427 10425 10423 10421 10420 10417 10416 10416 10415 10413 10411 10410 10408 10404 10400 10400 10402 10404 10405 10406 10406 10404 10403 10402 10401 10400 10400 10399 10399 10399 10398 10398 10398 10399 10400 10401 10401 10402 10404 10406 10409 10408 10408 10411 10412 10414 10416 10419 10422 10424 10425 10425 10425 10427 10432 10438 10444 10452 10458 10463 10470 10476 10482
10465 10463 10462 10459 10454 10449 10443 10439 10438 10436 10434 10432 10430 10427 10424 10420 10417 10416 10414 10412 10411 10409 10407 10406 10404 10402 10401 10399 10397 10396 10395 10393 10390 10389 10389 10385 10381 10381 10384 10387 10389 10390 10389 10388 10386 10385 10386 10386 10385 10385 10385 10385 10385 10384 10384 10385 10386 10386 10387 10389 10391 10393 10394 10393 10394 10397 10399 10401 10404 10407 10408 10411 10411 10411 10412 10415 10420 10426 10434 10441 10445 10450 10458 10465 10470
10443 10439 10438 10437 10432 10427 10422 10419 10417 10416 10414 10412 10409 10406 10403 10400 10397 10396 10395 10393 10392 10391 10390 10388 10387 10384 10382 10381 10380 10378 10377 10376 10372 10370 10370 10368 10364 10364 10367 10371 10373 10373 10372 10371 10370 10370 10370 10371 10371 10371 10371 10371 10371 10370 10371 10372 10374 10373 10373 10376 10378 10380 10379 10378 10380 10383 10385 10388 10392 10394 10395 10397 10398 10400 10401 10403 10407 10414 10422 10429 10433 10438 10446 10452 10456
10422 10417 10415 10414 10410 10406 10403 10400 10399 10397 10394 10391 10387 10385 10382 10380 10378 10378 10377 10375 10375 10374 10372 10370 10369 10368 10365 10363 10362 10361 10360 10359 10356 10353 10353 10352 10350 10349 10352 10354 10355 10355 10355 10355 10355 10355 10356 10356 10356 10356 10356 10356 10356 10356 10357 10359 10361 10360 10360 10363 10366 10366 10364 10364 10366 10369 10371 10375 10379 10381 10383 10385 10387 10388 10389 10390 10395 10402 10410 10416 10421 10427 10434 10440 10444
10403 10399 10395 10393 10390 10386 10383 10381 10380 10378 10374 10370 10367 10365 10362 10361 10360 10360 10359 10357 10356 10355 10354 10352 10351 10350 10348 10347 10346 10345 10343 10342 10340 10338 10338 10337 10335 10335 10336 10338 10338 10338 10339 10341 10341 10341 10341 10341 10340 10340 10340 10341 10343 10344 10344 10345 10346 10347 10347 10350 10353 10352 10350 10350 10353 10356 10359 10362 10366 10369 10372 10373 10375 10376 10376 10378 10383 10391 10398 10404 10409 10415 10423 10429 10433
10385 10382 10378 10375 10372 10369 10365 10364 10361 10358 10354 10352 10350 10347 10345 10344 10343 10341 10340 10339 10338 10337 10335 10334 10334 10333 10332 10331 10331 10330 10328 10327 10325 10324 10323 10322 10321 10320 10321 10323 10323 10323 10325 10327 10326 10326 10327 10327 10326 10326 10326 10328 10330 10331 10330 10330 10331 10334 10335 10336 10338 10338 10337 10338 10341 10344 10347 10350 10353 10357 10360 10361 10363 10364 10365 10368 10374 10381 10387 10393 10398 10404 10412 10418 10422
10368 10364 10361 10359 10356 10352 10349 10347 10344 10341 10338 10336 10334 10331 10330 10328 10326 10324 10323 10322 10321 10320 10318 10318 10318 10317 10316 10316 10315 10315 10313 10312 10311 10310 10309 10308 10307 10307 10308 10309 10308 10308 10310 10311 10311 10311 10312 10313 10313 10313 10314 10315 10316 10317 10317 10316 10317 10320 10322 10322 10323 10325 10326 10327 10330 10333 10335 10338 10341 10345 10348 10350 10351 10352 10354 10358 10365 10371 10376 10382 10388 10394 10401 10407 10412
10352 10348 10345 10342 10339 10336 10333 10330 10327 10325 10323 10321 10319 10317 10315 10313 10311 10309 10307 10306 10305 10305 10304 10303 10302 10302 10302 10301 10300 10299 10298 10298 10297 10297 10297 10296 10296 10296 10295 10295 10294 10294 10295 10296 10296 10296 10298 10299 10300 10301 10301 10301 10302 10302 10303 10304 10305 10306 10308 10309 10311 10313 10315 10317 10320 10323 10325 10327 10331 10334 10336 10337 10338 10340 10343 10349 10356 10361 10366 10372 10379 10385 10392 10398 10404
10335 10333 10330 10327 10324 10321 10318 10315 10312 10310 10308 10306 10304 10302 10300 10298 10296 10294 10293 10292 10292 10291 10290 10288 10288 10288 10288 10287 10285 10285 10285 10286 10286 10286 10286 10285 10284 10284 10283 10282 10281 10281 10282 10283 10284 10285 10286 10287 10288 10288 10288 10288 10289 10290 10291 10292 10293 10294 10296 10297 10300 10303 10305 10307 10310 10312 10315 10317 10320 10322 10325 10326 10327 10330 10334 10340 10346 10352 10357 10363 10370 10376 10382 10389 10395
10320 10318 10315 10313 10310 10307 10304 10301 10298 10296 10294 10292 10290 10288 10286 10284 10282 10280 10280 10280 10280 10278 10276 10275 10275 10275 10275 10274 10273 10273 10273 10273 10274 10275 10275 10274 10272 10272 10272 10271 10270 10271 10271 10273 10274 10275 10276 10276 10276 10276 10275 10276 10277 10278 10279 10280 10281 10283 10285 10286 10289 10292 10294 10296 10298 10301 10304 10306 10308 10312 10314 10314 10316 10321 10326 10332 10338 10343 10348 10354 10361 10367 10374 10380 10386
10307 10304 10301 10299 10296 10293 10291 10288 10286 10283 10281 10279 10277 10275 10273 10271 10270 10269 10269 10269 10268 10266 10265 10264 10264 10264 10264 10263 10262 10262 10261 10262 10263 10263 10263 10263 10262 10262 10262 10262 10262 10263 10263 10264 10265 10266 10266 10265 10264 10263 10263 10265 10266 10268 10269 10270 10271 10272 10274 10276 10278 10281 10283 10285 10287 10290 10293 10296 10298 10300 10302 10302 10306 10311 10317 10322 10328 10333 10338 10345 10352 10359 10365 10371 10378
10293 10291 10288 10285 10283 10281 10279 10276 10274 10271 10269 10266 10264 10263 10262 10261 10260 10261 10260 10258 10257 10255 10254 10254 10254 10254 10254 10253 10252 10251 10251 10252 10252 10252 10252 10253 10253 10253 10253 10254 10254 10255 10255 10256 10257 10256 10255 10253 10253 10253 10254 10256 10257 10258 10259 10260 10260 10262 10264 10266 10268 10271 10273 10275 10278 10281 10283 10285 10287 10289 10290 10292 10297 10302 10306 10312 10318 10323 10328 10335 10342 10349 10356 10363 10370
10281 10278 10275 10273 10271 10270 10267 10264 10262 10259 10257 10256 10255 10254 10253 10252 10252 10251 10250 10248 10247 10245 10245 10245 10245 10245 10244 10243 10243 10242 10242 10243 10243 10243 10244 10244 10245 10244 10244 10245 10245 10245 10246 10247 10247 10246 10245 10245 10245 10246 10246 10247 10248 10248 10248 10249 10251 10253 10254 10255 10257 10260 10263 10266 10268 10271 10273 10275 10277 10278 10280 10283 10288 10293 10297 10304 10309 10314 10319 10326 10333 10340 10347 10354 10362
10269 10266 10264 10262 10261 10259 10256 10253 10251 10249 10248 10247 10246 10246 10244 10243 10242 10242 10241 10239 10238 10237 10237 10237 10236 10236 10235 10234 10234 10233 10234 10235 10235 10235 10235 10235 10235 10235 10235 10236 10237 10237 10238 10238 10238 10237 10237 10237 10238 10238 10238 10238 10238 10237 10238 10240 10242 10243 10244 10246 10248 10251 10254 10256 10258 10260 10262 10265 10267 10269 10270 10274 10279 10284 10289 10296 10301 10306 10311 10318 10325 10332 10339 10347 10354
10258 10256 10254 10253 10250 10248 10245 10243 10242 10242 10240 10239 10238 10237 10236 10234 10234 10233 10233 10232 10231 10230 10229 10229 10228 10227 10227 10227 10227 10227 10227 10227 10227 10227 10227 10227 10227 10227 10227 10228 10229 10230 10230 10230 10229 10229 10229 10229 10229 10229 10230 10229 10229 10228 10229 10232 10233 10234 10235 10237 10239 10242 10245 10247 10249 10251 10254 10256 10259 10260 10262 10266 10271 10275 10281 10288 10293 10298 10304 10310 10317 10324 10332 10339 10346
10249 10247 10245 10243 10241 10239 10237 10236 10235 10234 10233 10232 10231 10229 10228 10228 10227 10226 10226 10225 10223 10223 10222 10222 10221 10220 10220 10220 10221 10221 10221 10220 10220 10220 10220 10220 10220 10220 10221 10221 10222 10223 10223 10222 10221 10221 10222 10222 10221 10221 10222 10221 10220 10220 10221 10222 10223 10224 10225 10227 10229 10232 10235 10237 10239 10242 10246 10248 10250 10252 10254 10257 10262 10266 10272 10279 10285 10290 10296 10303 10310 10317 10324 10331 10338
10240 10237 10235 10234 10233 10231 10230 10229 10227 10226 10225 10225 10224 10223 10222 10222 10221 10220 10219 10218 10217 10216 10216 10216 10215 10215 10214 10214 10215 10215 10215 10215 10214 10214 10213 10213 10214 10214 10215 10215 10216 10216 10216 10215 10214 10213 10213 10213 10213 10213 10213 10213 10212 10213 10213 10213 10213 10214 10216 10217 10218 10221 10224 10227 10230 10234 10237 10239 10241 10243 10245 10249 10253 10257 10263 10270 10276 10282 10288 10295 10302 10309 10316 10323 10330
10231 10229 10228 10227 10226 10224 10223 10222 10221 10220 10220 10219 10218 10218 10217 10216 10215 10214 10213 10213 10212 10211 10211 10210 10210 10210 10210 10210 10210 10210 10210 10210 10210 10209 10209 10208 10208 10208 10209 10209 10210 10210 10209 10208 10207 10205 10205 10204 10204 10204 10204 10205 10205 10205 10205 10205 10205 10206 10206 10207 10208 10210 10213 10216 10220 10224 10227 10230 10232 10235 10237 10241 10245 10249 10255 10261 10268 10274 10280 10287 10294 10301 10308 10315 10322
10223 10222 10222 10220 10219 10218 10217 10216 10216 10215 10214 10214 10214 10213 10212 10211 10210 10209 10208 10208 10208 10207 10207 10207 10207 10207 10207 10207 10207 10207 10206 10206 10206 10205 10205 10204 10203 10203 10203 10203 10203 10203 10202 10201 10199 10198 10196 10196 10196 10196 10196 10196 10196 10196 10196 10196 10196 10197 10198 10198 10199 10201 10203 10206 10210 10214 10217 10221 10225 10227 10229 10233 10237 10242 10247 10254 10261 10267 10273 10279 10286 10293 10300 10307 10314
10217 10216 10216 10214 10213 10212 10212 10211 10211 10210 10210 10210 10210 10209 10208 10207 10206 10205 10205 10205 10204 10204 10204 10204 10205 10205 10205 10204 10204 10204 10203 10202 10202 10201 10201 10200 10199 10198 10197 10197 10196 10196 10195 10194 10193 10191 10190 10189 10188 10188 10187 10187 10186 10186 10186 10186 10187 10188 10189 10190 10191 10192 10194 10197 10201 10204 10208 10212 10216 10219 10222 10226 10229 10234 10240 10247 10253 10260 10266 10272 10278 10285 10292 10299 10306
10211 10211 10210 10209 10208 10208 10207 10207 10206 10206 10206 10206 10206 10205 10204 10204 10203 10203 10202 10202 10202 10202 10202 10202 10202 10202 10202 10201 10201 10201 10200 10200 10199 10198 10198 10197 10196 10194 10193 10192 10191 10189 10188 10187 10186 10185 10184 10183 10182 10180 10179 10178 10177 10177 10177 10177 10178 10179 10180 10181 10183 10184 10186 10188 10192 10195 10199 10202 10206 10210 10214 10218 10221 10226 10233 10239 10246 10253 10259 10265 10271 10278 10285 10292 10299
10206 10206 10205 10204 10204 10203 10203 10203 10202 10202 10203 10203 10203 10202 10201 10201 10201 10201 10201 10200 10200 10200 10200 10200 10200 10200 10199 10199 10199 10198 10198 10198 10197 10196 10195 10194 10193 10192 10190 10188 10186 10184 10182 10181 10181 10180 10178 10177 10175 10174 10172 10170 10169 10168 10168 10168 10169 10170 10171 10172 10174 10175 10177 10179 10183 10186 10189 10192 10195 10200 10205 10209 10213 10218 10225 10232 10239 10246 10251 10257 10264 10271 10278 10286 10294
10202 10201 10200 10200 10200 10199 10199 10199 10199 10200 10200 10200 10200 10199 10199 10199 10199 10199 10199 10199 10199 10198 10198 10198 10198 10198 10197 10197 10196 10196 10196 10195 10194 10192 10191 10190 10189 10187 10186 10184 10181 10179 10177 10176 10175 10173 10171 10169 10167 10166 10164 10163 10161 10160 10160 10160 10161 10161 10162 10164 10165 10166 10167 10170 10173 10176 10180 10182 10185 10189 10195 10200 10204 10210 10217 10223 10230 10238 10244 10250 10258 10264 10272 10280 10288
10197 10197 10196 10196 10196 10196 10196 10196 10196 10197 10197 10197 10197 10197 10196 10196 10197 10197 10197 10197 10197 10196 10196 10196 10196 10195 10194 10194 10193 10193 10192 10191 10190 10188 10187 10185 10184 10182 10180 10178 10176 10174 10172 10171 10169 10167 10165 10162 10160 10158 10157 10155 10154 10153 10152 10152 10152 10153 10154 10155 10155 10156 10158 10160 10164 10167 10170 10173 10176 10180 10186 10191 10196 10202 10209 10216 10222 10230 10236 10243 10250 10257 10265 10272 10281
10194 10193 10193 10193 10193 10193 10193 10193 10194 10194 10195 10195 10194 10194 10194 10194 10195 10195 10195 10195 10194 10194 10194 10194 10193 10193 10192 10191 10190 10189 10188 10187 10185 10184 10182 10181 10179 10177 10175 10172 10170 10168 10167 10165 10163 10160 10158 10156 10153 10151 10149 10148 10147 10146 10145 10145 10145 10145 10145 10145 10147 10148 10150 10152 10156 10159 10162 10165 10168 10173 10178 10182 10188 10195 10202 10208 10215 10222 10229 10236 10243 10251 10258 10265 10274
10191 10191 10190 10190 10190 10190 10191 10191 10191 10191 10192 10192 10192 10192 10192 10192 10192 10192 10192 10192 10192 10192 10192 10192 10191 10191 10190 10188 10187 10186 10185 10184 10182 10180 10178 10177 10174 10172 10169 10166 10164 10163 10161 10160 10157 10154 10151 10148 10146 10144 10142 10140 10139 10138 10137 10137 10137 10138 10138 10138 10140 10141 10143 10145 10148 10151 10154 10158 10161 10166 10170 10175 10181 10188 10195 10201 10207 10215 10222 10230 10237 10244 10251 10260 10269
10188 10188 10188 10188 10188 10188 10188 10189 10189 10189 10189 10190 10190 10190 10190 10190 10190 10190 10190 10190 10190 10190 10190 10189 10189 10188 10187 10186 10185 10184 10182 10181 10178 10176 10174 10172 10170 10167 10164 10161 10158 10156 10155 10153 10151 10148 10144 10142 10139 10137 10135 10133 10132 10131 10131 10130 10130 10131 10131 10132 10133 10135 10136 10138 10140 10144 10147 10151 10155 10160 10164 10170 10175 10182 10189 10195 10201 10208 10216 10223 10231 10238 10245 10254 10263
10185 10186 10186 10186 10186 10186 10186 10186 10187 10187 10187 10188 10188 10188 10188 10188 10188 10188 10188 10188 10188 10188 10187 10187 10187 10186 10185 10184 10183 10181 10180 10177 10175 10172 10170 10167 10165 10162 10159 10156 10153 10151 10148 10146 10144 10142 10139 10136 10134 10132 10129 10128 10126 10125 10125 10124 10124 10124 10125 10126 10127 10129 10130 10132 10135 10138 10142 10146 10150 10155 10160 10165 10171 10177 10183 10190 10196 10203 10210 10218 10226 10233 10240 10249 10258
10183 10183 10183 10184 10184 10184 10184 10185 10185 10185 10185 10186 10186 10186 10186 10186 10186 10186 10186 10185 10185 10186 10186 10185 10185 10184 10183 10182 10180 10179 10177 10174 10172 10169 10166 10163 10161 10158 10155 10152 10149 10146 10143 10141 10138 10137 10134 10132 10129 10127 10125 10123 10121 10120 10120 10119 10119 10119 10119 10121 10122 10123 10125 10128 10130 10133 10137 10141 10146 10151 10156 10162 10167 10173 10178 10184 10190 10197 10205 10213 10220 10227 10235 10244 10254
10180 10181 10181 10182 10182 10182 10182 10183 10183 10183 10183 10183 10184 10184 10184 10184 10183 10183 10183 10183 10183 10183 10183 10183 10183 10182 10181 10180 10178 10176 10174 10171 10169 10166 10164 10161 10158 10154 10151 10148 10146 10143 10140 10137 10134 10132 10130 10128 10125 10123 10120 10119 10117 10116 10115 10115 10115 10114 10115 10116 10117 10119 10121 10123 10125 10128 10132 10137 10142 10147 10153 10158 10164 10169 10174 10179 10186 10193 10200 10207 10214 10222 10231 10240 10249
10178 10179 10179 10180 10180 10180 10180 10180 10181 10181 10181 10181 10181 10181 10181 10181 10181 10180 10180 10180 10180 10180 10180 10180 10180 10180 10179 10178 10176 10174 10171 10169 10167 10164 10161 10158 10155 10152 10149 10145 10142 10139 10136 10133 10130 10128 10126 10124 10121 10119 10116 10114 10113 10112 10111 10111 10111 10111 10111 10112 10114 10115 10117 10119 10122 10125 10129 10133 10138 10143 10149 10154 10159 10165 10170 10176 10183 10189 10196 10203 10210 10218 10227 10235 10245
10176 10177 10177 10177 10178 10178 10178 10178 10178 10178 10178 10178 10178 10178 10178 10178 10177 10177 10177 10176 10177 10177 10177 10177 10177 10177 10177 10176 10174 10172 10170 10168 10165 10162 10159 10157 10153 10150 10147 10143 10140 10136 10133 10130 10127 10125 10123 10120 10118 10115 10113 10111 10110 10109 10108 10108 10107 10108 10108 10109 10110 10112 10114 10116 10119 10122 10126 10130 10134 10139 10144 10149 10155 10161 10167 10173 10180 10186 10193 10200 10207 10215 10224 10233 10242
10174 10174 10175 10175 10175 10175 10175 10175 10175 10175 10175 10175 10175 10175 10175 10175 10174 10174 10173 10173 10173 10174 10174 10174 10174 10174 10173 10173 10172 10170 10168 10165 10163 10160 10157 10154 10151 10148 10145 10141 10138 10135 10131 10127 10124 10122 10119 10117 10114 10112 10110 10108 10107 10106 10105 10105 10105 10105 10106 10107 10108 10110 10111 10114 10117 10120 10123 10127 10131 10136 10140 10146 10151 10158 10164 10171 10177 10183 10190 10197 10204 10213 10222 10231 10240
10171 10172 10172 10172 10173 10173 10173 10173 10173 10173 10173 10173 10172 10172 10172 10172 10171 10171 10170 10170 10170 10170 10171 10171 10171 10171 10170 10170 10169 10168 10165 10163 10160 10158 10155 10152 10149 10146 10142 10139 10136 10133 10129 10126 10123 10120 10118 10115 10113 10110 10108 10107 10105 10104 10103 10103 10103 10103 10104 10105 10106 10108 10110 10112 10115 10118 10122 10126 10130 10135 10139 10144 10149 10156 10162 10168 10174 10180 10188 10195 10203 10212 10221 10230 10239
10169 10169 10170 10170 10170 10170 10170 10170 10170 10170 10170 10170 10170 10169 10169 10169 10168 10168 10168 10167 10167 10167 10168 10168 10168 10168 10167 10167 10166 10165 10163 10161 10158 10156 10153 10150 10147 10144 10141 10137 10134 10131 10128 10125 10122 10119 10117 10114 10112 10110 10108 10106 10104 10103 10103 10102 10102 10102 10103 10104 10106 10108 10110 10112 10114 10117 10121 10125 10130 10134 10139 10144 10149 10155 10161 10167 10172 10179 10186 10193 10202 10211 10220 10229 10238